Location: Unspecified
(44.0704°N, 88.6889°W)
Time: 13:21:20
(UTC+01:00)

Okean 3 - Pass Details

Date: 07 October 2020
Orbit: 575 x 602 km, 82.5° (Epoch: 26 October)

Event Time Altitude Azimuth Distance (km) Brightness Sun altitude
Exits shadow 11:13:32 27° 108° (ESE) 1,149 5.3 -30.1°
Maximum altitude 11:14:14 29° 90° (E) 1,108 5.3 -30.0°
Drops below altitude 10° 11:17:54 10° 30° (NNE) 1,928 6.7 -29.4°
Sets 11:20:18 0° 20° (NNE) 2,829 7.5 -29.0°
